Showing default

QIANFAN-64, 62794

Orbit data source: Space-Track

QIANFAN-64, 62794 is a Chinese payload satellite in LEO that was launched on Thu, 23 Jan 2025 UTC via a CHANG ZHENG 6A launch vehicle from the Taiyaun Space Center, China (TSC). Payload-class satellites include a variety of spacecraft equipped with specific instruments for various scientific and technological missions. These include communications satellites like Starlink; space stations such as the ISS; scientific satellites like the Hubble; Earth observation satellites from companies like Planet Labs, Umbra, and HawkEye 360; GPS; miniature CubeSats for education and research; and military/defense satellites.

Loading next visibility...
Identifier
62794, 2025-016K
Orbit
LEO
Country
Flag of CNCN / PRC
Related business
Manufacturer
SECM
Mission
Operational Commercial Communications
Bus & Motor
QIANFAN, Unknown motor
Mass
267 kg wet, ~267 kg dry
Launch date (UTC)
2025-01-23 (1 year ago)
Launch vehicle
CHANG ZHENG 6A
Launch site
Taiyaun Space Center, China (TSC)
Object type
Payload
Rocket body
Debris
Shape & HBR
Box + 1 Pan, 1.3 m
Radar Cross Section
13.200 m², Large (>1 m²)

Expand to show TLE details & history
Last TLE update: 8 hours ago

TLE from 8 hours ago
0 QIANFAN-64
1 62794U 25016K   26035.80140690  .00000105  00000-0  14407-3 0  9991
2 62794  88.9724  97.4433 0014585 177.3848 182.7382 13.50990315 54566
Epoch: 2026-02-04T19:14Z
TLE epoch observation values (Epoch: 2026-02-04T19:14:01.556Z)
Latitude
-0.00001°
Longitude
33.97404°
Altitude
1,082.421 km
Speed
7.306 km/s
True Right ascension
06h 29m 46s
True Declination
0° 00' 00"
Sunlit
Object was in full shadow at epoch
Visualization orbit readout
Latitude
Unknown
Longitude
Unknown
Altitude
Unknown
Speed
Unknown
Apparent Right ascension
Unknown
Apparent Declination
Unknown
Sunlit
N/A
Visualization observer readout
Local Sidereal Time
05:00:13
Azimuth
Unknown
Elevation
Unknown
Doppler factor
Unknown
Orbital elements
Apogee altitude
1,076.525 km
Perigee altitude
1,054.812 km
Semi-major axis
7,443.805 km
Eccentricity
0.00146
Inclination
88.9724°
RAAN
97.4433°
Arg. of periapsis
177.3848°
True anomaly
182.73023°
Mean anomaly
182.7382°
Eccentric anomaly
182.73421°
Mean motion
3.37949 °/min
Orbital period
106.53 mins
BSTAR
0.00014407
Loading maneuver chart data...
Computing Atmospheric mass density...
Loading historical data...
Loading historical data...
Loading historical data...
Loading historical data...
Loading historical data...
Loading historical data...
Loading historical data...

Documentation

Showing up to 5 results
|